sat.trackr.live / text

‹ back to catalog

STARLINK-33987

NORAD 63873 · 2025-094K

PAYLOAD ACTIVE UNKNOWN

§ Identity

Operator
Country
US
Launch date
2025-05-10
Launch site
AFWTR
Launch vehicle
Mass (kg)
RCS (m²)

Purposes: comms

External: N2YO · Heavens-Above · Gunter

§ Orbital elements

Epoch: 2026-05-25T02:58:52.526784Z

Period
96.11 min
Inclination
70.0020°
Eccentricity
0.0002870
Mean motion
14.98338716 rev/d
Perigee alt
570.0 km
Apogee alt
574.0 km
Semi-major
6,950.2 km
B*
3.1220e-4
RAAN
41.6903°
Arg perigee
268.7631°
Mean anomaly
91.3199°
Rev number
5,865

§ Raw data

STARLINK-339871 63873U 25094K   26145.12421906  .00003635  00000+0  31220-3 0  99972 63873  70.0020  41.6903 0002870 268.7631  91.3199 14.98338716 58657

JSON: /api/v1/satellites/63873 · /tle

For live sub-satellite position, see the globe view (requires WebGL).

§ Visibility from observer

Set your observer location to see the next 7 days of passes ≥ 10°. The values pass through the URL so the page stays shareable.

No JS? Fill the form by hand. The geolocation button needs JavaScript.